Nairobi Jomo, Kenya

2:51 PM EAT on February 25, 2018 (GMT +0300)
Jomo Kenyatta International Airport

Weather History for HKJK - November, 2012

Change the Weather History Date:

Thursday, November 22, 2012

  Actual Average (HKNW) Record (HKNW)
Temperature  
Mean Temperature 69 °F -  
Max Temperature 83 °F 72 °F 78 °F (2004)
Min Temperature 55 °F 60 °F 57 °F (2014)
Cooling Degree Days 4    
Growing Degree Days 19 (Base 50)    
Moisture  
Dew Point 57 °F    
Average Humidity 62    
Maximum Humidity 94    
Minimum Humidity 21    
Precipitation  
Precipitation 0.00 in - - ()
Sea Level Pressure  
Sea Level Pressure 30.11 in    
Wind  
Wind Speed 9 mph ()    
Max Wind Speed 20 mph    
Max Gust Speed -    
Visibility 7.2 miles    
Events      
Averages and records for this station are not official NWS values.
T = Trace of Precipitation, MM = Missing Value Source: Averaged Metar Reports

Daily Weather History Graph

Daily Weather History Graph

Search for Another Location

Airport or City:

Trip Planner

Search our weather history database for the weather conditions in past years. The results will help you decide how hot, cold, wet, or windy it might be!

Date:

Astronomy

Nov. 22, 2012 Rise Set
Actual Time 6:12 AM EAT 6:24 PM EAT
Civil Twilight 5:50 AM EAT 6:46 PM EAT
Nautical Twilight 5:25 AM EAT 7:11 PM EAT
Astronomical Twilight 4:59 AM EAT 7:37 PM EAT
Moon 1:51 PM EAT (11/22) 1:27 AM EAT (11/22)
Length of Visible Light 12h 55m
Length of Day
12h 11m
Waxing Gibbous, 68% of the Moon is Illuminated
Nov 22
Waxing Gibbous
Nov 28
Full
Dec 6
Last Quarter
Dec 13
New
Dec 20
First Quarter

Hourly Weather History & Observations

Time (EAT) Temp. Heat Index Dew Point Humidity Pressure Visibility Wind Dir Wind Speed Gust Speed Precip Events Conditions
12:00 AM 62.6 °F - 59.0 °F 88% 30.15 in - North 6.9 mph - N/A   Clear
1:00 AM 62.6 °F - 59.0 °F 88% 30.12 in - North 5.8 mph - N/A   Clear
2:00 AM 62.6 °F - 59.0 °F 88% 30.12 in 6.2 mi North 5.8 mph - N/A   Partly Cloudy
3:00 AM 62.6 °F - 59.0 °F 88% 30.09 in - NNW 5.8 mph - N/A   Clear
4:00 AM 60.8 °F - 57.2 °F 88% 30.09 in - NNW 3.5 mph - N/A   Clear
5:00 AM 59.0 °F - 57.2 °F 94% 30.12 in 6.2 mi NNW 3.5 mph - N/A   Partly Cloudy
6:00 AM 55.4 °F - 53.6 °F 94% 30.12 in 6.2 mi Calm Calm - N/A   Scattered Clouds
7:00 AM 59.0 °F - 57.2 °F 94% 30.15 in 6.2 mi Variable 3.5 mph - N/A   Scattered Clouds
8:00 AM 64.4 °F - 60.8 °F 88% 30.18 in 6.2 mi Variable 3.5 mph - N/A   Mostly Cloudy
9:00 AM 69 °F - 60 °F 66%  in 19 mi NE 9.2 mph - -   Mostly Cloudy
9:00 AM 69.8 °F - 60.8 °F 73% 30.18 in 6.2 mi NE 9.2 mph - N/A   Mostly Cloudy
9:30 AM 71.6 °F - 59.0 °F 64% 30.18 in 6.2 mi NNE 9.2 mph - N/A   Mostly Cloudy
10:00 AM 71.6 °F - 59.0 °F 64% 30.18 in 6.2 mi NE 9.2 mph - N/A   Mostly Cloudy
10:30 AM 73.4 °F - 59.0 °F 61% 30.15 in 6.2 mi NNE 6.9 mph - N/A   Scattered Clouds
11:00 AM 75.2 °F - 59.0 °F 57% 30.15 in 6.2 mi NNE 8.1 mph - N/A   Scattered Clouds
11:30 AM 77.0 °F - 57.2 °F 50% 30.15 in 6.2 mi Variable 5.8 mph - N/A   Scattered Clouds
12:00 PM 78.8 °F - 53.6 °F 42% 30.15 in 6.2 mi NNE 9.2 mph - N/A   Scattered Clouds
1:00 PM 80.6 °F - 50.0 °F 34% 30.09 in 6.2 mi East 11.5 mph - N/A   Scattered Clouds
1:30 PM 82.4 °F - 46.4 °F 28% 30.09 in 6.2 mi ENE 11.5 mph - N/A   Scattered Clouds
2:00 PM 82.4 °F - 46.4 °F 28% 30.06 in 6.2 mi NNE 16.1 mph - N/A   Scattered Clouds
2:30 PM 82.4 °F - 50.0 °F 32% 30.06 in 6.2 mi NNE 16.1 mph - N/A   Scattered Clouds
3:00 PM 82 °F - 49 °F 21%  in 19 mi ENE 17.3 mph - -   Partly Cloudy
3:00 PM 82.4 °F - 48.2 °F 30% 30.04 in 6.2 mi ENE 17.3 mph - N/A   Scattered Clouds
3:30 PM 80.6 °F - 48.2 °F 32% 30.04 in 6.2 mi ENE 18.4 mph - N/A   Scattered Clouds
4:00 PM 80.6 °F - 50.0 °F 34% 30.04 in 6.2 mi ENE 17.3 mph - N/A   Scattered Clouds
4:30 PM 80.6 °F - 46.4 °F 30% 30.04 in 6.2 mi ENE 16.1 mph - N/A   Scattered Clouds
5:00 PM 78.8 °F - 48.2 °F 34% 30.04 in 6.2 mi ENE 18.4 mph - N/A   Scattered Clouds
5:30 PM 78.8 °F - 53.6 °F 42% 30.04 in 6.2 mi ENE 17.3 mph - N/A   Scattered Clouds
6:00 PM 75.2 °F - 53.6 °F 47% 30.06 in 6.2 mi NE 16.1 mph - N/A   Scattered Clouds
6:30 PM 73.4 °F - 55.4 °F 53% 30.06 in 6.2 mi NNE 15.0 mph - N/A   Scattered Clouds
7:00 PM 71.6 °F - 57.2 °F 60% 30.06 in 6.2 mi NE 19.6 mph - N/A   Scattered Clouds
7:30 PM 71.6 °F - 59.0 °F 64% 30.09 in 6.2 mi NE 19.6 mph - N/A   Scattered Clouds
8:00 PM 89.6 °F 104.7 °F 78.8 °F 70% 30.12 in 6.2 mi ENE 13.8 mph - N/A   Mostly Cloudy
8:30 PM 69.8 °F - 60.8 °F 73% 30.12 in 6.2 mi ENE 17.3 mph - N/A   Mostly Cloudy
9:00 PM 69 °F - 61 °F 69%  in 19 mi ENE 15.0 mph - -   Mostly Cloudy
9:00 PM 68.0 °F - 60.8 °F 78% 30.15 in 6.2 mi ENE 15.0 mph - N/A   Mostly Cloudy
9:30 PM 71.6 °F - 60.8 °F 69% 30.15 in 6.2 mi ENE 19.6 mph - N/A   Mostly Cloudy
10:00 PM 68.0 °F - 60.8 °F 78% 30.15 in 6.2 mi ENE 16.1 mph - N/A   Mostly Cloudy
10:30 PM 66.2 °F - 60.8 °F 83% 30.15 in 6.2 mi ENE 17.3 mph - N/A   Mostly Cloudy
11:00 PM 66.2 °F - 60.8 °F 83% 30.15 in 6.2 mi ENE 10.4 mph - N/A   Mostly Cloudy
11:30 PM 66.2 °F - 60.8 °F 83% 30.15 in 6.2 mi ENE 11.5 mph - N/A   Mostly Cloudy